This demonstration page uses our WeatherBlox Daily Observations layout. Learn more.

Left ArrowRight Arrow

40.92945, -100.16068

Hourly Observations for February 26, 2015

Temp ( °F °C ) Dew Point ( °F °C ) Humidity (%) Winds ( mph kmh ) Pressure ( in mb ) Visibility ( mi km ) Precip ( " mm )
12:15 am 00:15 Cloudy 16 -9 7 -13.8 68 68 N 20 31 30.48 1032 10 16 N/A
12:35 am 00:35 Cloudy 15 -9.2 7 -14 68 68 N 17 28 30.50 1033 10 16 N/A
12:55 am 00:55 Cloudy 15 -9.2 8 -13.6 71 71 N 18 30 30.50 1033 10 16 N/A
1:15 am 01:15 Cloudy 15 -9.3 7 -14 69 69 N 17 28 30.50 1033 10 16 N/A
1:35 am 01:35 Cloudy 15 -9.6 6 -14.5 68 68 N 23 37 30.53 1034 10 16 N/A
1:55 am 01:55 Cloudy 13 -10.4 4 -15.6 66 66 N 17 28 30.53 1034 10 16 N/A
2:15 am 02:15 Partly Cloudy 12 -11.3 2 -16.4 66 66 N 22 35 30.56 1035 10 16 N/A
2:35 am 02:35 Partly Cloudy 11 -11.7 3 -16.2 70 70 N 14 22 30.59 1036 10 16 N/A
2:55 am 02:55 Mostly Cloudy 11 -11.7 3 -16 71 71 N 14 22 30.59 1036 10 16 N/A
3:15 am 03:15 Partly Cloudy 10 -12 1 -17 67 67 N 16 26 30.59 1036 10 16 N/A
3:35 am 03:35 Clear 10 -12.3 1 -17 68 68 N 16 26 30.59 1036 10 16 N/A
3:55 am 03:55 Clear 10 -12.5 1 -17 69 69 N 14 22 30.59 1036 10 16 N/A
4:15 am 04:15 Clear 9 -13 2 -16.9 73 73 N 9 15 30.59 1036 10 16 N/A
4:35 am 04:35 Clear 8 -13.2 2 -16.9 74 74 N 8 13 30.59 1036 10 16 N/A
4:55 am 04:55 Clear 8 -13.5 1 -17.1 75 75 N 9 15 30.59 1036 10 16 N/A
5:15 am 05:15 Clear 7 -13.8 1 -17.3 75 75 N 7 11 30.65 1038 10 16 N/A
5:35 am 05:35 Clear 5 -14.8 0 -17.7 79 79 N 6 9 30.65 1038 10 16 N/A
5:55 am 05:55 Clear 5 -15.2 0 -18 79 79 NNW 7 11 30.65 1038 10 16 N/A
6:15 am 06:15 Clear 5 -15.2 0 -17.8 81 81 NNW 7 11 30.65 1038 10 16 N/A
6:35 am 06:35 Clear 4 -15.7 -1 -18.3 81 81 NNW 8 13 30.68 1039 10 16 N/A
6:55 am 06:55 Clear 3 -16.1 -1 -18.5 82 82 NNW 8 13 30.68 1039 10 16 N/A
7:15 am 07:15 Clear 2 -16.5 -2 -18.8 83 83 NNW 7 11 30.68 1039 10 16 N/A
7:35 am 07:35 Sunny 2 -16.6 -2 -18.8 83 83 NNW 7 11 30.68 1039 10 16 N/A
7:55 am 07:55 Sunny 5 -15.1 0 -17.6 81 81 NNW 6 9 30.65 1038 10 16 N/A
8:15 am 08:15 Sunny 7 -14 2 -16.9 79 79 NNW 7 11 30.65 1038 10 16 N/A
8:35 am 08:35 Sunny 8 -13.1 3 -16.3 77 77 NNW 10 17 30.65 1038 10 16 N/A
8:55 am 08:55 Sunny 9 -12.6 2 -16.7 72 72 N 18 30 30.65 1038 10 16 N/A
9:15 am 09:15 Sunny 10 -12 2 -16.9 67 67 N 18 30 30.62 1037 10 16 N/A
9:35 am 09:35 Sunny 11 -11.6 1 -17.4 62 62 N 20 31 30.62 1037 10 16 N/A
9:55 am 09:55 Sunny 12 -11.1 1 -17.5 60 60 N 18 30 30.62 1037 10 16 N/A
10:15 am 10:15 Sunny 13 -10.7 1 -17.5 58 58 N 17 28 30.62 1037 10 16 N/A
10:35 am 10:35 Partly Cloudy 13 -10.3 1 -17.3 57 57 N 18 30 30.59 1036 10 16 N/A
10:55 am 10:55 Sunny 15 -9.4 -1 -18.3 49 49 N 21 33 30.59 1036 10 16 N/A
11:15 am 11:15 Sunny 15 -9.3 -1 -18.5 48 48 N 18 30 30.59 1036 10 16 N/A
11:35 am 11:35 Sunny 16 -9 -3 -19.6 42 42 N 17 28 30.59 1036 10 16 N/A
11:55 am 11:55 Sunny 17 -8.5 -4 -20 39 39 N 18 30 30.62 1037 10 16 N/A
12:15 pm 12:15 Sunny 17 -8.3 -4 -20.1 38 38 N 18 30 30.59 1036 10 16 N/A
12:35 pm 12:35 Sunny 18 -7.9 -4 -20 38 38 N 15 24 30.59 1036 10 16 N/A
12:55 pm 12:55 Sunny 18 -7.8 -5 -20.6 35 35 N 15 24 30.59 1036 10 16 N/A
1:15 pm 13:15 Sunny 19 -7.3 -5 -20.3 35 35 N 16 26 30.56 1035 10 16 N/A
1:35 pm 13:35 Sunny 19 -7.3 -5 -20.7 34 34 N 15 24 30.56 1035 10 16 N/A
1:55 pm 13:55 Sunny 20 -6.9 -5 -20.8 32 32 N 15 24 30.56 1035 10 16 N/A
2:15 pm 14:15 Sunny 20 -6.8 -6 -21.2 31 31 N 13 20 30.56 1035 10 16 0.01 0.25
2:35 pm 14:35 Sunny 20 -6.8 -7 -21.7 30 30 N 14 22 30.56 1035 10 16 0.01 0.25
2:55 pm 14:55 Sunny 20 -6.8 -7 -21.6 30 30 N 12 19 30.56 1035 10 16 0.01 0.25
3:15 pm 15:15 Sunny 21 -6.2 -8 -22 28 28 N 15 24 30.56 1035 10 16 N/A
3:35 pm 15:35 Sunny 20 -6.4 -7 -21.8 29 29 NNW 10 17 30.56 1035 10 16 N/A
3:55 pm 15:55 Sunny 20 -6.7 -7 -21.9 29 29 N 15 24 30.56 1035 10 16 N/A
4:15 pm 16:15 Sunny 20 -6.5 -7 -21.7 29 29 N 10 17 30.56 1035 10 16 N/A
4:35 pm 16:35 Sunny 20 -6.7 -7 -21.7 29 29 N 14 22 30.56 1035 10 16 N/A
4:55 pm 16:55 Sunny 19 -7 -8 -22 29 29 N 12 19 30.56 1035 10 16 N/A
5:15 pm 17:15 Sunny 19 -7.1 -8 -22.1 29 29 NNE 9 15 30.56 1035 10 16 N/A
5:35 pm 17:35 Sunny 19 -7.4 -8 -22.1 30 30 N 10 17 30.56 1035 10 16 N/A
5:55 pm 17:55 Sunny 18 -7.7 -8 -22.1 31 31 N 10 17 30.59 1036 10 16 0.00 0.00
6:15 pm 18:15 Sunny 17 -8.5 -7 -21.9 33 33 N 12 19 30.59 1036 10 16 N/A
6:35 pm 18:35 Clear 15 -9.5 -8 -22 36 36 NNE 9 15 30.59 1036 10 16 N/A
6:55 pm 18:55 Clear 14 -10.2 -7 -21.6 39 39 NNE 8 13 30.59 1036 10 16 N/A
7:15 pm 19:15 Clear 12 -11.2 -7 -21.5 43 43 NNE 9 15 30.62 1037 10 16 N/A
7:35 pm 19:35 Clear 11 -11.5 -6 -21.2 45 45 NNE 8 13 30.65 1038 10 16 N/A
7:55 pm 19:55 Clear 10 -12.1 -6 -20.9 48 48 NNE 7 11 30.65 1038 10 16 N/A
8:15 pm 20:15 Clear 9 -13 -5 -20.8 52 52 NNE 7 11 30.68 1039 10 16 N/A
8:35 pm 20:35 Clear 8 -13.4 -5 -20.7 55 55 NNE 8 13 30.68 1039 10 16 N/A
8:55 pm 20:55 Clear 7 -14 -5 -20.8 57 57 NNE 7 11 30.68 1039 10 16 N/A
9:15 pm 21:15 Clear 6 -14.2 -5 -20.8 58 58 NE 6 9 30.68 1039 10 16 N/A
9:35 pm 21:35 Clear 6 -14.7 -6 -21 59 59 NNE 3 6 30.68 1039 10 16 N/A
9:55 pm 21:55 Clear 5 -15.1 -6 -21 61 61 NE 3 6 30.71 1040 10 16 N/A
10:15 pm 22:15 Clear 4 -15.7 -6 -20.9 65 65 NNE 5 7 30.74 1041 10 16 N/A
10:35 pm 22:35 Clear 4 -15.6 -6 -21 64 64 NNE 6 9 30.74 1041 10 16 N/A
10:55 pm 22:55 Clear 4 -15.8 -5 -20.7 66 66 NNE 7 11 30.74 1041 10 16 N/A
11:15 pm 23:15 Clear 2 -16.4 -6 -20.9 68 68 Calm 30.74 1041 10 16 N/A
11:35 pm 23:35 Clear 3 -16 -6 -20.9 66 66 Calm 30.74 1041 10 16 N/A
11:55 pm 23:55 Clear 3 -16 -5 -20.8 67 67 Calm 30.74 1041 10 16 N/A

Powered by AerisWeather